Time,TemperatureF,DewpointF,PressureIn,WindDirection,WindDirectionDegrees,WindSpeedMPH,WindSpeedGustMPH,Humidity,HourlyPrecipIn,Conditions,Clouds,dailyrainin,SoftwareType,DateUTC
2013-08-16 00:00:00,64.3,42.0,29.71,ESE,117,0.0,3.0,45,0.00,,,0.00,weatherlink.com 1.10,2013-08-16 06:00:00,
2013-08-16 00:15:00,65.9,41.0,29.71,East,93,0.0,2.0,40,0.00,,,0.00,weatherlink.com 1.10,2013-08-16 06:15:00,
2013-08-16 00:30:00,64.6,44.0,29.71,East,93,0.0,1.0,48,0.00,,,0.00,weatherlink.com 1.10,2013-08-16 06:30:00,
2013-08-16 00:45:00,63.8,40.0,29.72,East,93,0.0,0.0,42,0.00,,,0.00,weatherlink.com 1.10,2013-08-16 06:45:00,
2013-08-16 01:00:00,67.7,44.0,29.72,NNE,13,0.0,6.0,42,0.00,,,0.00,weatherlink.com 1.10,2013-08-16 07:00:00,
2013-08-16 01:15:00,60.4,46.0,29.73,SE,138,2.0,3.0,59,0.00,,,0.00,weatherlink.com 1.10,2013-08-16 07:15:00,
2013-08-16 01:30:00,60.5,44.0,29.73,ESE,121,0.0,2.0,55,0.00,,,0.00,weatherlink.com 1.10,2013-08-16 07:30:00,
2013-08-16 01:45:00,59.6,43.0,29.73,ESE,121,0.0,1.0,54,0.00,,,0.00,weatherlink.com 1.10,2013-08-16 07:45:00,
2013-08-16 02:00:00,57.8,43.0,29.73,ESE,121,0.0,2.0,59,0.00,,,0.00,weatherlink.com 1.10,2013-08-16 08:00:00,
2013-08-16 02:15:00,58.0,42.0,29.74,ESE,121,0.0,1.0,55,0.00,,,0.00,weatherlink.com 1.10,2013-08-16 08:15:00,
2013-08-16 02:30:00,58.0,41.0,29.74,ESE,121,0.0,1.0,54,0.00,,,0.00,weatherlink.com 1.10,2013-08-16 08:30:00,
2013-08-16 02:45:00,56.9,44.0,29.74,ESE,121,0.0,0.0,63,0.00,,,0.00,weatherlink.com 1.10,2013-08-16 08:45:00,
2013-08-16 03:00:00,55.3,44.0,29.74,ESE,121,0.0,0.0,65,0.00,,,0.00,weatherlink.com 1.10,2013-08-16 09:00:00,
2013-08-16 03:16:00,54.8,43.0,29.74,ESE,121,0.0,0.0,64,0.00,,,0.00,weatherlink.com 1.10,2013-08-16 09:16:00,
2013-08-16 03:31:00,55.0,45.0,29.74,ESE,121,0.0,0.0,68,0.00,,,0.00,weatherlink.com 1.10,2013-08-16 09:31:00,
2013-08-16 03:46:00,53.8,46.0,29.75,ESE,121,0.0,0.0,74,0.00,,,0.00,weatherlink.com 1.10,2013-08-16 09:46:00,
2013-08-16 04:01:00,54.9,45.0,29.75,East,97,0.0,3.0,69,0.00,,,0.00,weatherlink.com 1.10,2013-08-16 10:01:00,
2013-08-16 04:16:00,53.5,44.0,29.75,East,97,0.0,1.0,71,0.00,,,0.00,weatherlink.com 1.10,2013-08-16 10:16:00,
2013-08-16 04:31:00,53.9,45.0,29.75,East,97,0.0,0.0,73,0.00,,,0.00,weatherlink.com 1.10,2013-08-16 10:31:00,
2013-08-16 04:46:00,52.6,44.0,29.75,East,97,0.0,0.0,73,0.00,,,0.00,weatherlink.com 1.10,2013-08-16 10:46:00,
2013-08-16 05:01:00,51.4,44.0,29.76,East,97,0.0,0.0,75,0.00,,,0.00,weatherlink.com 1.10,2013-08-16 11:01:00,
2013-08-16 05:16:00,50.5,45.0,29.76,East,97,0.0,2.0,81,0.00,,,0.00,weatherlink.com 1.10,2013-08-16 11:16:00,
2013-08-16 05:31:00,50.6,45.0,29.77,East,97,0.0,0.0,81,0.00,,,0.00,weatherlink.com 1.10,2013-08-16 11:31:00,
2013-08-16 05:46:00,50.4,44.0,29.77,East,97,0.0,0.0,80,0.00,,,0.00,weatherlink.com 1.10,2013-08-16 11:46:00,
2013-08-16 06:01:00,50.2,45.0,29.78,East,97,0.0,0.0,82,0.00,,,0.00,weatherlink.com 1.10,2013-08-16 12:01:00,
2013-08-16 06:16:00,49.8,44.0,29.77,East,97,0.0,0.0,81,0.00,,,0.00,weatherlink.com 1.10,2013-08-16 12:16:00,
2013-08-16 06:31:00,49.9,45.0,29.78,East,97,0.0,0.0,82,0.00,,,0.00,weatherlink.com 1.10,2013-08-16 12:31:00,
2013-08-16 06:46:00,50.3,44.0,29.79,East,97,0.0,0.0,79,0.00,,,0.00,weatherlink.com 1.10,2013-08-16 12:46:00,
2013-08-16 07:01:00,48.8,44.0,29.79,East,97,0.0,0.0,84,0.00,,,0.00,weatherlink.com 1.10,2013-08-16 13:01:00,
2013-08-16 07:16:00,48.6,44.0,29.79,East,97,0.0,0.0,85,0.00,,,0.00,weatherlink.com 1.10,2013-08-16 13:16:00,
2013-08-16 07:31:00,48.8,45.0,29.80,East,97,1.0,2.0,85,0.00,,,0.00,weatherlink.com 1.10,2013-08-16 13:31:00,
2013-08-16 07:46:00,49.6,45.0,29.80,East,97,0.0,1.0,84,0.00,,,0.00,weatherlink.com 1.10,2013-08-16 13:46:00,
2013-08-16 08:01:00,51.3,45.0,29.80,East,97,0.0,2.0,79,0.00,,,0.00,weatherlink.com 1.10,2013-08-16 14:01:00,
2013-08-16 08:16:00,53.1,45.0,29.80,East,97,0.0,1.0,73,0.00,,,0.00,weatherlink.com 1.10,2013-08-16 14:16:00,
2013-08-16 08:31:00,55.0,45.0,29.80,East,97,0.0,0.0,70,0.00,,,0.00,weatherlink.com 1.10,2013-08-16 14:31:00,
2013-08-16 08:46:00,56.9,45.0,29.80,East,97,0.0,0.0,65,0.00,,,0.00,weatherlink.com 1.10,2013-08-16 14:46:00,
2013-08-16 09:02:00,59.5,45.0,29.80,East,97,0.0,0.0,60,0.00,,,0.00,weatherlink.com 1.10,2013-08-16 15:02:00,
2013-08-16 09:17:00,61.8,45.0,29.80,East,97,0.0,2.0,55,0.00,,,0.00,weatherlink.com 1.10,2013-08-16 15:17:00,
2013-08-16 09:32:00,63.4,45.0,29.81,East,97,1.0,2.0,51,0.00,,,0.00,weatherlink.com 1.10,2013-08-16 15:32:00,
2013-08-16 09:47:00,65.0,44.0,29.81,East,97,0.0,1.0,47,0.00,,,0.00,weatherlink.com 1.10,2013-08-16 15:47:00,
2013-08-16 10:02:00,67.0,45.0,29.80,NNW,345,0.0,1.0,46,0.00,,,0.00,weatherlink.com 1.10,2013-08-16 16:02:00,
2013-08-16 10:17:00,69.1,45.0,29.80,NNW,346,0.0,2.0,42,0.00,,,0.00,weatherlink.com 1.10,2013-08-16 16:17:00,
2013-08-16 10:32:00,70.3,43.0,29.80,WNW,290,0.0,3.0,37,0.00,,,0.00,weatherlink.com 1.10,2013-08-16 16:32:00,
2013-08-16 10:47:00,71.9,43.0,29.79,West,260,0.0,5.0,35,0.00,,,0.00,weatherlink.com 1.10,2013-08-16 16:47:00,
2013-08-16 11:02:00,73.7,44.0,29.79,SSW,204,1.0,3.0,35,0.00,,,0.00,weatherlink.com 1.10,2013-08-16 17:02:00,
2013-08-16 11:17:00,74.2,44.0,29.79,South,176,4.0,6.0,34,0.00,,,0.00,weatherlink.com 1.10,2013-08-16 17:17:00,
2013-08-16 11:32:00,75.2,44.0,29.79,South,184,3.0,5.0,33,0.00,,,0.00,weatherlink.com 1.10,2013-08-16 17:32:00,
2013-08-16 11:47:00,76.9,44.0,29.79,South,182,4.0,4.0,31,0.00,,,0.00,weatherlink.com 1.10,2013-08-16 17:47:00,
2013-08-16 12:02:00,78.7,45.0,29.78,South,172,4.0,4.0,30,0.00,,,0.00,weatherlink.com 1.10,2013-08-16 18:02:00,
2013-08-16 12:17:00,80.0,45.0,29.77,South,178,3.0,6.0,29,0.00,,,0.00,weatherlink.com 1.10,2013-08-16 18:17:00,
2013-08-16 12:32:00,81.9,45.0,29.77,NW,311,3.0,5.0,27,0.00,,,0.00,weatherlink.com 1.10,2013-08-16 18:32:00,
2013-08-16 12:47:00,83.4,46.0,29.76,South,178,0.0,4.0,27,0.00,,,0.00,weatherlink.com 1.10,2013-08-16 18:47:00,
2013-08-16 13:17:00,86.1,45.0,29.75,SSW,200,3.0,8.0,24,0.00,,,0.00,weatherlink.com 1.10,2013-08-16 19:17:00,
2013-08-16 13:33:00,-999.0,-99.9,29.74,North,-999,-999.0,-999.0,-999,0.00,,,0.00,weatherlink.com 1.10,2013-08-16 19:33:00,
2013-08-16 13:48:00,-999.0,-99.9,29.74,North,-999,-999.0,-999.0,-999,0.00,,,0.00,weatherlink.com 1.10,2013-08-16 19:48:00,
2013-08-16 14:03:00,-999.0,-99.9,29.74,North,-999,-999.0,-999.0,-999,0.00,,,0.00,weatherlink.com 1.10,2013-08-16 20:03:00,
2013-08-16 14:18:00,-999.0,-99.9,29.74,North,-999,-999.0,-999.0,-999,0.00,,,0.00,weatherlink.com 1.10,2013-08-16 20:18:00,
2013-08-16 14:33:00,-999.0,-99.9,29.73,North,-999,-999.0,-999.0,-999,0.00,,,0.00,weatherlink.com 1.10,2013-08-16 20:33:00,
2013-08-16 14:48:00,-999.0,-99.9,29.73,North,-999,-999.0,-999.0,-999,0.00,,,0.00,weatherlink.com 1.10,2013-08-16 20:48:00,
2013-08-16 15:03:00,-999.0,-99.9,29.72,North,-999,-999.0,-999.0,-999,0.00,,,0.00,weatherlink.com 1.10,2013-08-16 21:03:00,
2013-08-16 15:18:00,-999.0,-99.9,29.72,North,-999,-999.0,-999.0,-999,0.00,,,0.00,weatherlink.com 1.10,2013-08-16 21:18:00,
2013-08-16 15:33:00,-999.0,-99.9,29.71,North,-999,-999.0,-999.0,-999,0.00,,,0.00,weatherlink.com 1.10,2013-08-16 21:33:00,
2013-08-16 15:48:00,-999.0,-99.9,29.71,North,-999,-999.0,-999.0,-999,0.00,,,0.00,weatherlink.com 1.10,2013-08-16 21:48:00,
2013-08-16 16:03:00,-999.0,-99.9,29.71,North,-999,-999.0,-999.0,-999,0.00,,,0.00,weatherlink.com 1.10,2013-08-16 22:03:00,
2013-08-16 16:18:00,-999.0,-99.9,29.70,North,-999,-999.0,-999.0,-999,0.00,,,0.00,weatherlink.com 1.10,2013-08-16 22:18:00,
2013-08-16 16:33:00,-999.0,-99.9,29.69,North,-999,-999.0,-999.0,-999,0.00,,,0.00,weatherlink.com 1.10,2013-08-16 22:33:00,
2013-08-16 16:49:00,-999.0,-99.9,29.69,North,-999,-999.0,-999.0,-999,0.00,,,0.00,weatherlink.com 1.10,2013-08-16 22:49:00,
2013-08-16 17:04:00,-999.0,-99.9,29.69,North,-999,-999.0,-999.0,-999,0.00,,,0.00,weatherlink.com 1.10,2013-08-16 23:04:00,
2013-08-16 17:19:00,-999.0,-99.9,29.69,North,-999,-999.0,-999.0,-999,0.00,,,0.00,weatherlink.com 1.10,2013-08-16 23:19:00,
2013-08-16 17:34:00,-999.0,-99.9,29.68,North,-999,-999.0,-999.0,-999,0.00,,,0.00,weatherlink.com 1.10,2013-08-16 23:34:00,
2013-08-16 17:49:00,-999.0,-99.9,29.68,North,-999,-999.0,-999.0,-999,0.00,,,0.00,weatherlink.com 1.10,2013-08-16 23:49:00,
2013-08-16 18:04:00,-999.0,-99.9,29.67,North,-999,-999.0,-999.0,-999,0.00,,,0.00,weatherlink.com 1.10,2013-08-17 00:04:00,
2013-08-16 18:19:00,-999.0,-99.9,29.68,North,-999,-999.0,-999.0,-999,0.00,,,0.00,weatherlink.com 1.10,2013-08-17 00:19:00,
2013-08-16 18:34:00,-999.0,-99.9,29.67,North,-999,-999.0,-999.0,-999,0.00,,,0.00,weatherlink.com 1.10,2013-08-17 00:34:00,
2013-08-16 18:49:00,-999.0,-99.9,29.68,North,-999,-999.0,-999.0,-999,0.00,,,0.00,weatherlink.com 1.10,2013-08-17 00:49:00,
2013-08-16 19:04:00,-999.0,-99.9,29.67,North,-999,-999.0,-999.0,-999,0.00,,,0.00,weatherlink.com 1.10,2013-08-17 01:04:00,
2013-08-16 19:19:00,-999.0,-99.9,29.67,North,-999,-999.0,-999.0,-999,0.00,,,0.00,weatherlink.com 1.10,2013-08-17 01:19:00,
2013-08-16 19:34:00,-999.0,-99.9,29.67,North,-999,-999.0,-999.0,-999,0.00,,,0.00,weatherlink.com 1.10,2013-08-17 01:34:00,
2013-08-16 19:49:00,-999.0,-99.9,29.67,North,-999,-999.0,-999.0,-999,0.00,,,0.00,weatherlink.com 1.10,2013-08-17 01:49:00,
2013-08-16 20:04:00,-999.0,-99.9,29.68,North,-999,-999.0,-999.0,-999,0.00,,,0.00,weatherlink.com 1.10,2013-08-17 02:04:00,
2013-08-16 20:19:00,86.8,44.0,29.68,NNW,346,4.0,7.0,22,0.00,,,0.00,weatherlink.com 1.10,2013-08-17 02:19:00,
2013-08-16 20:35:00,84.8,44.0,29.69,NNW,346,2.0,2.0,24,0.00,,,0.00,weatherlink.com 1.10,2013-08-17 02:35:00,
2013-08-16 20:50:00,83.9,42.0,29.70,NNE,14,5.0,8.0,23,0.00,,,0.00,weatherlink.com 1.10,2013-08-17 02:50:00,
2013-08-16 21:05:00,83.7,42.0,29.70,NNW,330,6.0,10.0,23,0.00,,,0.00,weatherlink.com 1.10,2013-08-17 03:05:00,
2013-08-16 21:20:00,84.4,43.0,29.71,North,5,5.0,10.0,23,0.00,,,0.00,weatherlink.com 1.10,2013-08-17 03:20:00,
2013-08-16 21:35:00,82.9,43.0,29.71,NNW,347,7.0,10.0,24,0.00,,,0.00,weatherlink.com 1.10,2013-08-17 03:35:00,
2013-08-16 21:50:00,83.2,43.0,29.72,North,355,11.0,14.0,24,0.00,,,0.00,weatherlink.com 1.10,2013-08-17 03:50:00,
2013-08-16 22:05:00,83.6,42.0,29.73,NNW,329,6.0,16.0,23,0.00,,,0.00,weatherlink.com 1.10,2013-08-17 04:05:00,
2013-08-16 22:20:00,81.9,48.0,29.75,North,360,17.0,21.0,30,0.00,,,0.00,weatherlink.com 1.10,2013-08-17 04:20:00,
2013-08-16 22:35:00,81.3,48.0,29.75,NNW,336,7.0,21.0,31,0.00,,,0.00,weatherlink.com 1.10,2013-08-17 04:35:00,
2013-08-16 22:50:00,79.8,48.0,29.75,NW,305,5.0,12.0,33,0.00,,,0.00,weatherlink.com 1.10,2013-08-17 04:50:00,
2013-08-16 23:05:00,77.8,49.0,29.76,NW,321,5.0,8.0,36,0.00,,,0.00,weatherlink.com 1.10,2013-08-17 05:05:00,
2013-08-16 23:20:00,76.8,49.0,29.76,NNW,329,4.0,10.0,38,0.00,,,0.00,weatherlink.com 1.10,2013-08-17 05:20:00,
2013-08-16 23:35:00,76.3,49.0,29.76,NNW,343,5.0,8.0,39,0.00,,,0.00,weatherlink.com 1.10,2013-08-17 05:35:00,
2013-08-16 23:50:00,77.1,49.0,29.76,NNW,333,6.0,11.0,37,0.00,,,0.00,weatherlink.com 1.10,2013-08-17 05:50:00,